sat.trackr.live / text

‹ back to catalog

KUIPER-00253

NORAD 68584 · 2026-072M

PAYLOAD ACTIVE UNKNOWN

§ Identity

Operator
Country
US
Launch date
2026-04-04
Launch site
AFETR
Launch vehicle
Mass (kg)
RCS (m²)

External: N2YO · Heavens-Above · Gunter

§ Orbital elements

Epoch: 2026-09-19T22:46:17.099328Z

Period
97.30 min
Inclination
51.9044°
Eccentricity
0.0001058
Mean motion
14.79931204 rev/d
Perigee alt
628.8 km
Apogee alt
630.3 km
Semi-major
7,007.7 km
B*
2.7571e-4
RAAN
124.1524°
Arg perigee
94.8762°
Mean anomaly
265.2321°
Rev number
2,532

§ Raw data

KUIPER-002531 68584U 26072M   26262.94880902  .00001881  00000+0  27571-3 0  99982 68584  51.9044 124.1524 0001058  94.8762 265.2321 14.79931204 25328

JSON: /api/v1/satellites/68584 · /tle

For live sub-satellite position, see the globe view (requires WebGL).

§ Visibility from observer

Set your observer location to see the next 7 days of passes ≥ 10°. The values pass through the URL so the page stays shareable.

No JS? Fill the form by hand. The geolocation button needs JavaScript.